Weather in Chopovychi

Ukraine / Zhytomyr Region     50°50′00″N   28°57′08″E
temp.,
°C
wind,
m/s
gust,
m/s
humid.,
%
clouds,
%
prec.,
mm/h
press.,
hPa
HPBL,
m
13 april, tue
tue1300:00+7se2293100 0.0 102126
03:00+8s1189100 0.0 102011
06:00+8ese2290100 0.0 101929
09:00+9sse2384100 0.0 1019232
12:00+10se3480100 0.0 1019359
15:00+12sse3573100 0.0 1018690
18:00+12se4575100 0.1 1017441
21:00+9se3485100 0.1 101785
14 april, wed
wed1400:00+9se3687100 0.0 1016189
03:00+8se3691100 0.0 1015191
06:00+7se3691100 0.0 1015221
09:00+8sse3691100 0.1 1015274
12:00+8sse2592100 0.5 1015240
15:00+11ssw467795 0.7 1014530
18:00+11w2373100 0.0 1013390
21:00+9nne2386100 0.0 101451
15 april, thu
thu1500:00+8ene3385100 0.0 101366
03:00+8ene3382100 0.0 101341
06:00+8ene3582100 0.0 1012100
09:00+11e3673100 0.0 1012323
12:00+14e5658100 0.9 10111228
15:00+15ese4550100 1.8 10101664
18:00+12se4765100 0.3 1010532
21:00+9ne2277100 0.4 101121
16 april, fri
fri1600:00+8ene1184100 0.0 101016
03:00+8ne2386100 0.0 100961
06:00+8ne3697100 2.2 1009335
09:00+8e599094 2.9 1010609
12:00+10e687499 0.6 1011992
15:00+11e6858100 0.9 10111733
18:00+9e577490 0.2 1013749
21:00+7e488172 0.3 1015573
17 april, sat
sat1700:00+5e479083 0.0 1016296
03:00+3e379338 0.0 1018227
06:00+4ene368790 0.0 1019213
09:00+7e46745 0.0 1020558
12:00+10ese355739 0.0 10211311
15:00+13ne454795 0.0 10201736
18:00+8ne3483100 1.4 1021394
21:00+8nw2595100 3.1 1021322